GEFSMW_500_meanwind_186.txt.gz
Wind_Speed
41 42 43 45 46 47 47 49 48 49 52 53 53 52 52 53 52 53 53 52 51 51 50 50 50 50 51 50 48 47 47 46 45 43 41 40 38 38 37 37 36 35 35
40 41 42 43 45 46 46 47 47 49 50 51 51 52 52 52 52 53 53 52 52 52 50 50 51 51 51 51 50 49 48 48 46 45 44 42 41 40 39 38 37 36 36
39 39 41 42 43 45 45 46 47 48 49 49 51 52 52 52 52 53 52 52 52 51 51 51 51 51 51 50 51 50 48 49 47 46 46 44 43 41 40 39 38 38 37
38 39 40 41 42 42 43 45 44 45 46 47 49 50 51 51 52 52 51 52 52 51 52 52 51 51 51 51 51 50 49 49 48 46 46 45 43 42 41 41 40 40 39
37 37 38 39 39 40 41 42 42 44 45 46 47 47 49 50 51 51 51 51 52 51 51 51 50 50 51 50 51 50 50 49 48 47 47 46 44 43 42 41 41 40 40
35 35 36 37 38 38 38 40 42 43 44 45 45 45 45 47 48 48 50 49 50 50 49 49 50 50 50 50 51 50 49 49 49 48 47 46 44 42 41 41 40 40 40
33 33 35 36 35 35 37 39 40 40 41 42 42 44 45 45 46 47 47 48 48 48 48 48 48 49 50 50 50 48 48 48 49 47 47 46 43 43 42 42 41 41 40
33 32 33 34 34 35 36 37 38 38 40 40 41 42 43 43 44 46 47 47 47 46 46 48 47 47 49 50 50 48 47 47 48 46 46 46 44 43 42 42 42 41 40
32 31 31 31 33 35 37 37 37 37 38 39 39 41 42 42 43 44 46 46 46 46 47 48 47 46 47 49 49 47 46 46 46 46 45 44 43 42 42 41 41 41 40
30 31 31 32 33 34 36 37 37 36 38 38 38 39 40 41 42 43 44 44 45 45 45 46 45 46 47 47 47 47 46 46 45 45 44 44 42 42 41 41 41 41 40
30 30 30 30 32 33 35 36 36 36 36 37 37 38 39 39 41 42 44 44 43 44 44 45 45 45 46 46 45 45 44 44 44 43 43 42 41 41 41 41 41 40 40
30 30 29 29 31 32 34 35 36 36 37 37 37 37 37 38 39 41 43 43 43 44 44 44 45 44 46 46 45 44 44 44 43 42 42 41 41 41 40 40 40 40 40
30 30 29 29 30 32 33 34 35 36 37 37 36 35 36 37 39 40 41 43 42 42 44 44 44 44 45 46 45 44 44 43 43 41 41 40 40 40 41 41 40 39 39
31 30 28 28 30 32 33 34 34 35 36 36 36 36 36 37 37 38 40 41 40 41 42 42 43 44 44 44 43 42 43 43 43 41 40 40 39 39 40 39 38 38 37
31 31 30 29 29 31 31 32 32 33 35 35 35 36 37 38 38 38 39 40 39 40 41 41 42 43 44 43 42 42 42 42 41 40 40 40 39 39 39 38 38 37 37
30 30 30 30 30 30 31 32 33 33 33 34 34 34 37 38 37 37 38 40 39 40 40 41 41 42 42 42 42 42 42 42 41 40 38 39 40 39 39 38 38 37 38
30 30 30 30 30 31 31 31 32 33 33 34 35 35 36 37 38 38 38 38 38 40 39 41 41 41 41 41 41 42 42 42 41 40 39 39 38 38 38 37 37 37 39
30 31 31 31 30 30 30 30 31 32 33 35 36 38 38 37 38 38 38 38 38 38 39 40 41 40 40 40 41 41 41 41 40 39 39 38 37 37 37 36 37 37 37
32 32 32 31 30 30 31 30 30 30 31 33 35 37 39 38 38 39 39 40 39 39 39 38 40 40 40 40 41 40 40 39 38 38 37 37 35 35 35 35 35 36 36
32 32 32 31 30 30 30 30 30 30 30 31 33 35 36 37 38 38 39 39 40 40 39 38 39 38 38 38 39 39 38 38 36 35 35 35 34 34 34 34 34 35 36
31 30 30 30 30 30 29 29 29 29 30 30 31 33 34 36 37 39 40 39 39 39 38 38 38 38 37 36 37 37 37 36 35 34 34 34 33 32 32 33 34 35 36
30 29 28 28 29 29 29 28 28 28 28 29 30 31 33 35 36 38 38 38 39 39 39 38 38 38 37 36 36 36 35 34 33 32 33 33 32 32 32 33 34 34 36
29 28 27 27 27 27 27 27 27 27 27 27 28 29 31 33 34 35 37 37 38 38 37 38 38 38 37 37 36 35 35 34 34 34 33 33 33 33 32 33 33 33 34
28 28 27 26 26 26 26 27 27 27 27 27 27 28 30 31 33 34 36 37 37 37 37 38 38 38 36 36 35 34 34 33 34 35 34 34 33 33 32 32 33 34 33
28 28 27 26 26 26 26 26 26 27 27 27 28 29 29 30 31 33 34 35 36 36 36 37 38 38 37 36 35 34 34 33 32 32 33 34 34 32 31 32 33 33 33
28 28 27 26 26 27 27 26 26 26 27 28 28 28 29 29 30 31 32 33 35 35 35 36 36 37 37 37 37 36 35 34 33 32 32 33 32 31 31 31 31 31 31

GEFSMW_500_meanwind_192.txt.gz
Wind_Speed
40 41 41 41 41 43 45 47 49 51 51 52 52 53 52 53 54 54 55 56 57 56 55 56 55 54 53 52 51 51 50 50 49 49 48 47 46 45 44 42 41 40 40
40 40 41 40 41 42 43 45 47 49 50 51 52 53 52 52 54 54 55 55 56 55 55 56 56 55 54 53 52 52 52 51 50 50 49 48 48 46 45 44 43 42 42
39 40 40 40 40 42 43 44 45 47 49 51 51 52 51 52 52 53 54 53 54 55 55 55 56 56 55 54 53 52 52 52 52 51 51 50 49 48 47 45 45 44 43
39 39 39 39 40 41 42 44 45 46 48 49 49 50 51 52 52 52 52 53 54 54 54 55 56 56 55 55 53 53 53 53 52 52 51 51 50 49 47 46 45 44 44
39 40 40 39 39 40 42 43 44 46 48 48 48 49 50 50 51 52 52 51 52 53 53 53 53 54 54 54 54 53 53 53 52 51 51 51 51 50 49 48 46 45 45
40 40 40 41 41 40 41 42 43 44 45 46 46 47 48 48 49 49 50 50 51 52 51 52 52 53 53 53 53 53 53 53 52 51 51 51 51 51 50 48 47 45 45
41 40 40 40 40 40 40 41 42 43 44 45 45 46 47 48 48 47 48 49 50 50 51 52 52 52 51 52 51 52 52 51 51 51 50 50 50 51 50 49 47 46 45
40 40 39 39 38 39 39 40 41 42 44 44 43 44 47 48 48 46 46 48 49 50 50 51 52 52 51 51 50 50 50 50 50 50 50 49 50 51 50 49 47 46 45
40 39 37 38 39 38 39 38 39 41 40 41 40 41 43 45 45 45 44 46 48 48 49 50 50 51 51 50 50 49 48 48 49 50 50 49 50 50 49 48 48 47 46
39 37 37 37 38 38 37 36 38 40 39 39 40 41 43 43 43 43 43 43 44 45 46 47 48 49 49 49 48 48 47 47 48 48 49 49 48 49 48 47 47 46 45
37 36 35 36 37 37 37 37 37 38 38 39 39 40 41 41 41 41 41 42 44 44 45 47 47 47 48 48 48 47 46 45 46 47 46 47 47 46 46 45 44 43 44
37 36 36 36 37 37 38 36 36 36 37 38 39 40 39 38 38 39 40 40 41 43 44 45 46 47 47 47 47 45 44 43 43 44 45 45 44 45 44 43 42 42 42
38 38 37 36 36 36 36 35 34 35 35 37 39 39 39 38 39 39 40 40 40 42 42 42 44 45 45 45 44 44 44 42 41 42 42 42 43 43 42 42 42 42 42
38 38 37 36 35 35 35 34 34 33 34 35 36 37 37 38 38 38 39 40 39 40 41 41 42 44 44 44 43 43 42 42 40 41 41 41 43 42 42 42 42 42 42
38 37 37 35 34 34 34 33 33 33 33 33 34 35 36 37 36 36 37 38 38 39 39 40 40 42 42 43 42 42 41 41 41 40 40 39 40 41 42 42 41 42 41
36 35 34 33 33 32 32 32 32 31 32 32 33 34 33 34 33 34 35 36 37 38 38 38 39 39 41 41 40 40 41 41 40 40 39 39 39 40 41 41 42 42 41
35 33 32 32 31 30 31 30 30 30 31 31 32 32 31 31 32 32 33 33 35 35 36 37 37 37 37 38 39 39 40 40 39 38 39 39 38 40 41 41 40 40 39
34 33 31 29 28 27 28 28 28 29 30 30 29 29 30 30 31 31 31 31 32 33 34 35 35 35 36 37 38 38 39 39 38 38 38 39 39 39 40 39 39 38 38
32 30 29 27 26 27 27 27 27 28 29 28 29 29 30 31 32 31 31 31 31 32 34 34 34 36 37 38 37 38 38 37 37 37 37 37 38 37 37 38 37 36 35
30 29 29 28 27 26 26 26 27 27 27 27 28 28 29 30 31 30 29 30 30 32 34 35 35 37 37 37 36 36 36 37 36 36 35 35 35 34 35 35 34 33 33
29 29 28 27 27 26 26 26 26 25 26 26 27 27 28 28 29 30 29 30 30 32 32 34 36 36 36 36 36 35 34 35 35 35 34 34 33 33 33 32 31 31 32
29 28 28 28 27 26 25 26 26 26 26 26 26 26 27 28 28 30 30 29 29 29 30 32 33 34 34 33 34 33 32 32 33 33 33 32 31 31 31 30 30 31 32
28 28 28 27 26 25 25 26 26 26 25 26 25 26 27 27 27 28 29 28 28 29 29 30 31 31 32 32 32 33 32 31 31 31 31 31 30 30 30 29 29 30 31
28 28 27 26 25 25 24 25 25 25 24 24 24 25 26 26 26 26 27 27 27 28 27 28 29 30 30 30 30 30 30 30 30 30 31 31 30 30 29 29 29 29 29
27 27 26 25 24 24 23 22 22 23 24 24 24 24 24 25 25 26 26 27 27 26 25 26 27 27 28 28 28 28 29 29 30 30 30 29 29 29 29 29 28 28 28
26 26 25 24 23 23 23 22 22 22 23 24 24 24 24 24 25 25 26 27 26 25 24 24 25 25 26 27 27 28 29 28 29 29 29 29 29 28 28 28 28 27 27

GEFSMW_500_meanwind_198.txt.gz
Wind_Speed
44 44 44 45 45 45 46 46 47 47 47 49 50 51 52 53 54 55 54 54 54 55 55 55 55 55 55 55 55 55 55 54 53 52 51 50 49 49 48 47 46 44 43
44 44 45 45 45 45 45 45 46 46 47 48 48 49 50 51 53 55 54 55 55 55 56 55 55 55 56 56 56 56 56 56 54 53 52 51 50 50 50 49 48 46 45
43 44 45 45 44 44 44 45 45 45 45 46 46 47 48 49 50 53 55 56 56 55 55 56 56 56 57 57 57 57 57 56 55 54 53 52 52 51 51 50 49 48 48
43 44 44 44 44 43 44 44 44 43 44 45 46 46 46 47 48 51 53 54 55 55 56 57 57 56 56 56 56 56 56 56 55 55 54 54 53 53 52 51 50 49 49
42 43 43 43 43 43 43 42 43 43 44 44 45 46 47 48 49 50 52 52 53 54 55 55 55 55 55 54 55 55 56 56 55 55 54 53 53 53 53 52 50 50 49
42 42 42 42 42 43 43 42 42 43 43 44 45 46 47 48 49 49 51 51 52 54 53 53 53 53 53 52 52 53 54 53 54 53 52 52 51 51 51 51 50 49 49
41 42 42 42 43 43 43 43 43 42 42 43 44 45 46 47 47 47 48 50 51 51 50 51 51 51 52 51 51 51 52 52 52 51 50 51 50 50 50 50 50 49 48
41 42 42 42 43 44 44 43 43 43 43 43 44 45 45 45 45 46 47 47 48 49 49 50 51 51 51 50 49 50 50 50 49 49 49 49 49 49 49 49 49 49 48
41 41 42 42 42 43 43 43 44 44 42 42 43 44 44 44 44 44 45 45 46 48 49 50 50 49 48 48 48 48 48 48 48 47 47 48 48 48 46 46 46 46 45
41 41 42 42 43 43 44 43 44 44 43 43 42 42 42 42 43 44 44 44 45 46 48 48 48 48 48 48 47 47 47 48 48 47 46 46 46 47 46 45 45 44 43
41 41 41 42 43 44 44 43 43 43 44 43 40 40 40 40 41 42 43 43 44 45 46 46 45 45 45 46 47 47 47 47 47 47 47 46 47 47 46 45 45 44 43
41 41 42 42 43 43 43 43 42 41 42 41 40 39 38 39 40 40 40 41 42 42 42 42 43 43 44 44 44 45 46 46 46 46 46 45 45 44 43 43 43 43 43
41 42 42 42 41 41 41 40 39 39 40 40 38 37 38 38 37 37 38 39 39 40 40 40 40 41 42 43 42 42 43 44 44 44 44 43 43 42 40 41 41 42 42
41 42 42 41 41 40 40 39 38 39 39 38 37 37 37 37 37 37 37 37 37 37 38 39 39 39 40 40 41 41 41 41 42 42 42 42 41 41 40 40 40 41 40
41 42 42 41 40 40 39 39 38 38 38 38 37 36 36 36 36 37 37 37 36 35 36 37 38 38 38 38 38 39 39 39 40 41 41 41 40 40 41 41 40 39 38
42 42 42 41 41 40 40 39 37 37 37 37 36 36 36 36 35 36 36 36 36 35 35 36 36 36 36 36 36 37 37 37 38 39 40 39 39 39 38 38 37 36 37
43 42 43 41 40 40 39 38 38 38 37 36 35 36 36 36 36 36 35 34 35 34 34 34 34 34 34 35 35 34 34 35 36 37 37 36 37 37 37 35 36 37 37
42 42 42 41 40 39 38 38 37 36 35 35 35 34 34 34 34 34 33 33 32 33 33 33 33 33 33 34 35 34 34 35 35 35 34 34 35 35 35 35 36 36 36
41 41 41 41 39 37 37 36 35 34 34 34 34 33 32 31 31 31 32 31 31 32 33 33 33 34 34 34 34 34 33 33 33 33 34 34 34 33 33 34 33 33 34
39 38 38 37 36 36 36 35 33 32 32 32 31 31 30 29 29 29 29 29 28 28 29 29 30 31 31 31 31 31 31 31 31 31 31 31 32 32 32 32 32 32 32
37 36 35 35 34 34 33 33 31 31 30 30 29 28 28 28 28 28 28 28 27 27 27 27 28 28 29 30 30 30 30 30 30 29 29 29 30 30 30 30 30 30 30
35 34 33 32 32 32 31 30 29 29 28 27 26 26 25 25 25 25 26 27 27 26 26 27 27 26 27 27 27 28 28 27 27 28 28 28 28 28 28 28 28 28 29
34 33 33 32 31 31 30 28 26 26 25 24 24 24 23 23 23 24 25 26 25 25 25 26 26 25 25 25 25 25 26 27 26 27 27 27 27 27 27 27 27 27 28
33 32 31 30 28 27 27 26 25 24 23 22 22 22 22 22 22 23 23 24 24 24 24 24 25 25 25 25 25 24 25 25 25 25 25 25 25 26 26 25 25 26 27
31 30 29 27 26 25 23 23 22 21 21 21 21 21 21 22 21 21 21 22 21 22 22 22 23 24 24 24 24 24 24 23 23 23 23 23 23 24 24 24 25 25 25
28 27 27 26 25 24 23 23 22 22 21 21 21 21 21 21 21 20 20 21 20 20 21 21 22 22 22 23 23 23 24 24 23 23 22 22 22 22 22 22 23 23 24

GEFSMW_500_meanwind_204.txt.gz
Wind_Speed
37 37 38 39 41 42 43 44 46 47 48 49 50 50 50 51 52 53 54 55 56 57 57 57 57 56 56 55 55 55 55 55 55 54 53 52 52 51 50 50 49 49 49
39 39 40 41 43 44 45 46 47 48 49 50 51 51 51 52 52 53 54 55 56 57 58 58 58 58 57 57 57 57 57 56 56 55 54 54 53 52 52 52 51 51 50
40 41 41 42 43 45 46 47 48 49 50 51 52 52 52 52 52 52 53 54 56 56 57 57 58 58 59 58 58 58 58 57 56 56 56 55 54 55 53 52 52 52 51
41 40 41 42 43 44 46 47 48 49 50 51 52 52 52 52 51 51 51 53 54 55 55 56 56 57 58 60 59 59 59 58 57 56 56 55 55 56 54 53 53 53 52
41 41 41 42 43 44 45 46 47 48 49 50 51 51 52 51 51 50 50 51 52 53 54 54 54 55 56 57 59 58 57 57 57 56 55 56 55 55 56 54 53 53 53
41 41 41 41 43 44 45 45 46 47 48 49 50 50 51 50 49 49 48 49 50 51 51 53 53 53 53 53 54 55 55 55 55 55 55 55 54 55 55 55 54 53 52
41 42 42 42 42 43 44 44 45 46 46 47 48 48 49 49 48 47 47 47 48 49 49 50 50 51 51 51 51 52 53 53 53 53 53 53 53 53 53 54 53 53 52
41 42 42 43 43 43 43 44 45 45 45 45 46 46 46 47 47 47 47 46 46 48 48 48 48 48 49 49 50 50 50 50 50 50 49 49 50 51 50 51 51 52 51
41 41 41 42 43 42 42 43 44 44 44 44 44 44 45 45 46 47 46 45 46 46 46 46 46 46 47 47 48 48 48 48 49 48 48 47 48 48 48 48 49 50 50
39 39 40 41 42 42 42 44 43 43 43 43 43 43 44 44 44 45 45 45 45 46 46 44 44 44 44 45 46 47 47 47 47 47 47 48 48 48 47 46 46 48 48
37 38 38 40 41 41 41 41 42 42 43 43 43 43 43 42 43 43 43 43 43 43 43 43 43 43 43 44 45 46 46 46 46 47 47 46 46 46 45 45 46 46 46
37 37 38 39 40 40 40 41 41 42 42 42 41 41 41 40 41 41 41 41 41 41 42 42 42 42 42 43 44 45 45 45 45 46 45 45 44 43 42 43 43 44 44
36 36 37 38 38 39 40 41 41 42 41 41 41 41 40 39 40 40 39 39 40 40 41 41 41 40 40 40 41 41 41 42 42 43 43 42 41 41 40 41 42 43 42
37 37 37 38 38 38 39 40 40 41 42 41 40 40 39 39 38 39 39 39 39 39 40 39 39 39 39 39 38 38 39 39 40 40 41 40 39 39 39 40 41 42 41
37 37 38 38 38 38 39 40 40 41 41 40 39 39 39 39 38 37 38 37 37 37 37 37 37 37 37 37 36 36 37 38 38 38 38 38 37 38 37 38 39 39 39
38 38 38 38 38 38 38 39 39 39 39 39 38 38 37 37 37 36 36 35 35 35 35 35 35 36 36 36 36 35 36 37 36 36 36 36 35 35 35 36 37 37 37
38 38 39 39 38 38 38 38 38 37 37 36 36 36 36 36 36 36 35 34 34 33 34 34 35 36 36 35 36 36 35 35 35 35 35 35 34 35 34 34 35 36 36
38 38 37 37 37 37 37 37 36 36 36 35 35 34 35 34 34 34 34 33 32 32 33 33 34 34 34 34 33 34 34 33 33 33 33 33 33 34 34 34 34 35 36
37 36 36 36 36 36 36 36 36 36 35 35 35 35 34 33 32 32 31 31 31 31 31 31 31 31 31 31 31 32 31 31 31 32 32 32 33 33 33 34 34 35 36
36 36 36 37 37 37 37 36 36 36 36 36 35 34 33 32 32 32 31 30 29 28 28 28 28 29 29 29 30 30 30 31 31 32 33 33 33 33 33 33 34 35 35
37 37 37 37 37 37 37 37 36 36 36 35 35 33 32 32 31 31 30 28 26 25 25 26 26 26 27 28 29 29 30 30 31 31 32 32 32 33 33 33 32 32 32
37 37 37 38 37 37 36 36 36 35 35 34 33 32 31 30 29 28 27 26 25 24 24 25 25 25 26 27 28 29 29 29 30 30 31 31 31 31 31 31 30 30 31
36 36 36 36 36 35 35 34 33 33 32 31 30 29 29 28 27 26 24 25 25 25 24 24 24 24 24 25 26 27 27 27 27 28 29 29 29 29 29 30 29 29 29
34 34 34 33 33 32 31 31 30 29 28 26 26 25 25 25 25 25 24 24 24 24 23 23 23 22 23 24 24 24 23 24 25 26 26 26 26 26 26 27 26 26 27
30 30 30 30 29 28 27 26 26 26 25 24 24 24 23 23 23 23 22 22 22 22 22 22 22 22 21 21 22 22 22 22 23 23 23 23 23 23 23 23 24 24 24
28 27 27 27 26 25 25 24 24 24 24 23 23 23 22 22 22 22 21 22 22 21 20 20 21 20 20 20 20 20 20 21 21 21 20 20 20 20 20 20 20 20 21

GEFSMW_500_meanwind_210.txt.gz
Wind_Speed
37 37 38 39 40 40 41 42 42 43 44 44 44 45 45 46 47 47 49 50 51 52 52 53 54 54 54 55 55 56 56 56 56 55 55 54 54 54 54 53 53 52 52
38 39 40 40 41 41 42 43 43 44 45 45 46 46 47 47 48 48 49 50 51 52 54 54 55 56 56 56 57 57 57 57 57 57 58 57 55 55 55 55 54 54 54
38 40 41 41 41 42 43 44 45 45 46 47 47 47 48 49 49 49 49 50 51 53 54 55 56 57 57 58 58 59 59 59 59 59 60 60 59 58 57 56 56 55 55
39 40 41 42 42 43 44 45 45 46 47 48 48 49 49 49 50 50 51 51 53 54 56 56 57 57 58 59 59 60 61 61 60 60 61 61 60 60 59 58 57 57 56
40 41 42 43 43 44 45 45 46 47 48 48 49 50 50 51 52 52 53 53 54 56 57 57 57 57 58 59 60 61 61 61 60 60 60 60 59 59 60 59 57 56 56
41 42 43 43 44 45 46 46 46 47 48 49 50 51 52 52 53 54 55 55 56 57 57 57 57 58 58 58 58 58 58 59 59 59 59 60 59 59 59 59 58 57 56
43 43 43 43 44 45 46 47 47 47 48 49 50 51 52 53 54 55 56 56 57 57 57 56 56 56 55 55 55 55 55 56 57 57 57 58 57 57 57 56 56 56 54
43 43 43 44 44 45 45 45 46 48 49 50 51 51 52 53 54 55 56 56 56 56 55 55 54 54 54 53 53 53 53 54 53 53 54 54 54 53 53 53 54 54 53
42 43 43 44 44 44 45 45 46 47 48 49 50 51 52 52 54 54 55 55 54 53 52 52 52 52 52 52 52 52 51 51 51 51 51 51 51 50 49 50 51 52 52
41 42 42 43 44 44 44 45 46 47 47 49 49 50 50 51 52 53 53 53 51 50 50 50 50 50 50 50 50 50 49 49 48 48 48 48 47 47 47 47 48 48 48
41 41 42 43 43 44 45 45 46 46 47 47 48 48 49 50 50 50 49 49 48 48 48 47 48 49 49 49 48 47 46 46 46 47 46 46 45 45 45 45 46 46 46
42 42 42 41 42 43 44 44 45 46 46 47 47 47 47 47 47 46 46 46 46 46 46 46 47 47 47 47 46 45 45 45 45 45 45 45 46 45 45 45 45 45 45
42 42 42 42 42 42 42 43 44 44 45 46 46 45 45 44 44 43 44 45 45 44 44 44 44 45 45 45 44 43 43 42 42 42 43 43 43 43 43 43 42 42 42
41 41 41 41 41 41 41 42 43 43 43 44 44 44 43 42 41 41 43 43 43 43 43 43 43 43 42 41 41 40 41 41 40 41 42 43 43 42 42 41 39 39 39
40 40 41 40 40 40 40 41 42 43 43 42 42 41 41 41 41 40 40 40 40 41 41 41 42 40 39 38 39 39 39 39 39 39 40 40 40 39 38 38 37 36 36
40 40 40 40 40 41 41 41 41 41 41 41 40 40 41 40 39 39 38 39 39 39 39 40 39 38 37 37 37 37 37 37 37 36 36 35 36 36 35 35 35 35 34
40 40 39 39 40 40 40 40 40 40 40 40 40 40 40 40 39 39 39 40 38 37 38 38 37 36 35 35 36 36 35 34 33 33 33 33 33 33 33 33 32 32 32
40 41 41 41 40 40 39 39 39 39 39 39 39 40 40 39 38 38 38 38 37 36 36 35 34 32 32 32 32 33 33 32 31 31 32 32 31 30 31 31 30 29 31
40 41 41 41 40 39 38 38 38 38 38 37 38 38 38 37 36 35 35 35 35 35 33 32 32 31 30 30 31 31 30 30 29 29 29 30 28 28 29 29 29 29 30
39 39 39 38 38 37 37 37 37 37 37 38 38 38 37 36 35 35 35 34 34 33 31 30 30 30 30 29 29 29 29 28 28 28 28 28 28 28 28 29 30 30 30
37 37 37 37 37 37 36 36 36 36 37 37 37 37 37 36 35 35 35 34 32 31 30 30 29 29 28 29 28 28 28 28 28 28 28 28 28 28 28 29 30 30 29
36 36 36 36 37 37 37 36 36 36 36 37 37 37 37 37 36 35 33 32 31 30 30 29 28 28 28 27 27 27 27 28 28 27 27 27 28 28 29 29 29 28 27
35 35 35 35 35 36 35 35 34 35 35 35 35 36 36 35 34 33 31 31 30 29 29 28 26 26 26 26 26 26 27 27 27 27 27 27 28 28 27 27 27 27 25
35 34 34 33 33 33 33 33 33 33 33 33 33 33 33 32 31 30 30 29 28 27 26 26 25 24 25 25 26 26 26 26 26 27 27 27 26 26 25 25 26 26 25
33 33 32 32 32 31 31 32 32 32 31 31 30 29 29 28 28 28 28 27 26 26 25 24 24 24 23 24 24 24 25 25 25 24 24 24 23 24 24 24 24 24 24
31 31 30 30 30 30 30 30 30 30 30 29 28 27 26 26 26 26 26 25 25 24 24 23 23 22 21 21 22 22 22 22 22 21 21 22 22 22 21 21 21 21 21

GEFSMW_500_meanwind_216.txt.gz
Wind_Speed
35 35 35 35 35 36 38 39 40 40 41 41 41 42 43 43 44 45 46 46 47 47 47 48 49 49 50 50 51 51 52 52 53 54 54 54 54 53 52 53 53 53 53
37 37 37 37 37 38 38 39 41 42 42 42 43 43 44 44 45 45 46 47 47 47 48 49 49 50 51 51 51 52 52 53 54 55 55 54 53 53 53 53 54 54 54
38 38 38 38 39 39 39 40 41 42 43 43 43 43 44 45 46 46 47 47 48 48 48 49 49 50 51 51 51 52 53 53 53 52 53 54 54 54 54 54 55 56 56
39 39 39 39 39 40 40 41 41 42 43 43 44 44 45 46 46 47 47 48 48 48 49 49 50 51 51 52 53 54 53 53 53 54 55 55 56 57 56 56 57 58 58
39 39 39 40 40 40 41 41 42 43 44 44 45 45 46 47 47 48 49 49 49 49 50 50 51 52 52 53 53 53 53 54 54 55 56 57 58 58 59 58 58 58 59
41 41 40 40 41 41 42 42 43 43 44 44 44 45 47 48 48 49 50 50 50 51 51 52 53 53 54 54 53 54 54 54 55 56 57 58 58 59 60 60 59 59 59
41 41 41 42 42 43 43 43 43 44 44 45 45 46 48 49 50 50 50 51 52 52 52 53 54 55 55 55 55 55 54 55 56 56 57 58 59 59 59 59 59 59 57
40 41 42 42 43 43 43 43 44 44 45 46 47 48 49 50 51 51 51 52 52 53 53 54 54 55 55 55 56 56 56 56 57 57 57 58 58 57 57 56 56 56 55
40 41 41 41 42 43 42 43 44 44 45 45 47 48 49 50 50 51 51 52 53 53 54 54 55 55 55 55 56 56 56 56 56 56 56 56 55 55 54 53 53 53 53
39 40 40 41 41 41 42 42 43 44 45 46 47 47 48 48 49 50 52 53 54 54 54 54 55 55 55 55 56 56 55 55 55 54 53 53 52 53 53 52 51 51 50
39 39 39 40 40 40 40 41 42 43 44 46 47 47 48 48 49 50 52 53 53 53 54 54 54 54 53 53 53 53 53 53 52 52 51 51 51 50 51 50 49 48 48
38 38 38 39 39 40 40 40 41 42 44 45 47 48 48 48 49 50 51 51 51 52 52 53 52 51 51 50 50 50 50 50 49 49 48 48 48 47 47 47 46 46 46
39 38 38 38 39 39 40 41 41 42 43 45 46 46 46 47 48 49 49 50 50 50 50 50 50 49 49 48 47 47 47 46 45 45 45 44 44 44 44 44 45 45 45
40 39 39 39 39 39 39 40 41 42 43 44 44 44 45 46 46 47 47 48 48 48 48 48 47 47 47 46 45 45 44 43 42 42 42 41 40 40 41 43 43 43 43
39 40 39 39 39 39 39 40 40 41 41 42 41 42 43 44 45 45 46 46 47 47 46 45 44 44 44 45 43 43 42 41 40 40 40 39 38 38 39 40 40 40 40
39 40 40 40 40 39 39 40 40 40 40 40 41 42 42 43 44 44 44 45 45 44 43 43 43 42 43 42 42 41 39 39 39 39 38 37 36 36 37 37 37 37 37
38 39 39 40 40 40 40 39 39 39 39 40 40 41 41 42 42 42 43 43 42 42 41 41 40 40 39 40 40 39 38 37 37 37 36 35 35 35 35 35 35 34 34
37 38 38 38 40 40 39 39 39 39 39 39 40 40 40 41 40 41 40 40 39 39 39 39 39 39 39 38 38 37 37 36 35 34 34 34 34 34 34 34 33 33 33
37 37 37 38 38 39 39 38 38 38 38 38 39 38 39 39 38 38 38 37 37 37 37 37 38 38 37 36 35 35 35 34 33 32 32 32 32 32 31 31 31 31 31
36 37 37 37 36 36 36 37 37 36 36 36 37 37 37 37 37 37 36 36 36 36 35 35 35 34 33 33 33 34 33 31 30 29 29 29 29 29 29 28 28 27 27
35 35 35 35 35 35 35 35 35 35 34 35 36 36 36 36 36 36 36 35 34 33 33 33 32 31 31 31 31 30 29 28 28 28 27 27 27 27 27 26 26 26 26
33 33 33 33 34 34 35 35 34 34 34 34 35 35 35 34 34 35 34 33 33 32 31 31 30 30 29 29 29 28 29 28 27 26 26 25 25 25 25 25 24 25 25
32 32 32 33 33 33 34 35 34 34 34 35 34 34 33 33 33 32 32 32 31 30 30 29 29 29 29 29 28 28 28 28 27 26 25 25 25 25 25 25 24 24 23
32 32 32 32 32 32 33 33 33 33 33 32 32 32 32 31 31 31 30 29 29 28 28 27 28 28 28 27 27 27 26 25 25 24 24 24 24 24 24 24 23 22 21
31 31 31 32 32 32 32 32 31 31 30 30 30 30 30 30 29 29 28 27 27 27 27 27 27 27 27 26 26 25 25 24 24 24 23 23 23 22 22 22 21 20 19
30 30 31 31 31 31 31 31 31 30 29 28 28 28 27 28 28 27 27 26 26 26 26 26 26 26 25 25 25 25 24 24 24 23 23 22 21 21 20 19 19 18 17

GEFSMW_500_meanwind_222.txt.gz
Wind_Speed
38 38 37 36 36 36 36 36 37 37 37 38 39 39 39 39 40 40 40 41 41 42 42 42 43 43 44 44 45 45 46 46 47 48 48 48 49 48 48 49 49 49 49
39 38 38 37 37 37 37 37 37 38 38 39 40 40 41 41 41 42 42 43 43 44 44 44 44 45 45 45 46 47 47 48 49 50 50 50 49 49 49 49 50 51 51
40 39 39 38 38 38 38 38 39 39 40 40 41 41 41 42 43 43 44 44 44 45 45 46 46 46 46 47 48 49 49 49 50 51 52 52 51 50 50 51 51 51 52
41 40 40 39 40 40 40 40 41 41 41 41 41 42 42 43 43 44 45 45 45 46 47 47 47 48 48 49 49 50 50 51 51 52 53 53 53 52 52 51 51 52 53
42 42 41 41 41 41 41 42 42 42 42 42 43 43 44 44 45 45 46 46 47 47 48 49 49 49 50 50 50 51 51 52 52 53 53 53 54 54 54 53 52 53 54
43 42 42 42 42 42 42 43 43 43 43 44 44 45 45 46 46 46 47 47 47 48 49 49 50 50 50 51 51 52 52 53 53 54 54 54 54 55 56 55 53 53 53
43 43 43 43 43 43 43 44 44 44 44 45 45 46 46 47 47 48 48 48 48 49 48 49 50 50 51 52 52 52 53 54 54 54 54 54 55 56 56 56 55 54 54
42 43 43 44 44 44 44 44 44 44 44 45 45 46 47 48 48 49 50 50 50 50 50 50 50 51 51 52 52 53 54 54 54 54 54 54 54 55 56 56 56 56 54
42 42 43 43 44 44 44 44 44 44 44 45 46 47 47 48 49 50 50 50 50 50 51 50 50 51 52 52 54 54 54 53 53 54 54 54 54 55 55 55 55 55 55
42 42 43 43 43 43 43 43 43 44 44 45 46 47 48 48 49 49 49 50 51 51 51 50 51 51 53 54 54 54 54 54 53 53 53 53 53 53 52 51 52 53 53
41 41 41 42 42 43 43 43 44 44 45 45 46 46 47 47 47 47 48 49 50 50 50 50 51 52 53 53 54 54 54 54 54 54 53 52 51 50 49 49 50 50 51
41 41 41 41 41 42 42 43 43 44 45 45 46 47 46 46 46 46 47 47 48 49 50 50 51 52 53 53 54 54 54 53 53 52 51 50 49 48 48 48 47 48 49
40 40 40 40 39 40 41 42 42 43 43 44 44 44 44 44 45 45 45 45 47 48 49 50 50 52 52 52 52 53 51 50 50 49 48 47 47 46 46 46 47 47 48
40 41 40 39 39 39 40 40 41 41 42 42 43 42 42 43 44 45 45 45 45 46 47 48 50 50 50 50 50 49 48 47 46 45 45 45 45 44 45 45 45 46 46
40 40 40 39 39 40 41 41 41 41 41 41 41 42 42 43 43 44 44 44 45 46 47 47 48 47 48 48 47 45 45 44 43 43 43 44 44 43 43 43 43 44 44
39 39 39 40 40 40 41 41 41 41 41 41 41 42 42 43 43 43 43 43 44 44 45 46 46 46 46 45 44 43 42 42 42 42 42 42 42 42 42 41 42 42 41
38 38 38 39 40 40 40 41 40 40 41 40 41 42 42 42 42 42 42 42 43 43 44 44 44 44 43 42 41 40 40 40 41 40 40 40 40 41 41 39 39 39 38
38 38 38 39 40 40 40 40 39 39 40 40 40 41 41 42 42 42 42 41 41 41 42 42 42 41 40 39 39 40 39 39 39 38 39 38 38 38 38 37 36 36 36
38 39 39 39 39 40 40 39 39 39 40 39 39 40 40 41 41 41 41 41 41 41 40 39 39 38 38 38 39 39 38 37 37 37 37 37 36 36 36 36 36 35 34
37 38 38 39 39 39 39 39 39 39 39 39 39 39 39 40 40 40 40 40 40 40 39 38 37 37 37 37 37 36 36 35 35 35 35 35 35 34 34 34 33 33 32
36 37 37 37 37 38 38 39 40 40 39 38 38 38 39 39 39 38 38 38 38 38 37 36 36 36 36 36 35 34 34 34 33 33 33 33 33 33 33 33 32 31 30
36 36 36 37 37 37 38 38 38 38 37 37 38 38 39 38 37 37 36 36 35 35 35 34 34 35 35 34 34 33 33 33 33 32 32 32 32 32 31 31 31 30 29
37 37 36 36 36 37 37 36 36 36 36 36 37 37 37 36 35 35 33 32 32 33 33 33 33 33 33 33 33 32 32 32 32 31 31 32 32 31 31 30 29 28 27
36 36 36 35 34 35 35 35 35 35 35 35 35 35 35 34 33 32 31 31 31 32 32 32 32 32 31 30 30 31 31 32 31 31 32 31 31 29 28 26 25 25 25
34 35 35 35 35 34 34 34 34 34 33 33 33 33 33 32 31 31 31 30 31 32 32 31 30 29 28 28 29 29 30 30 30 30 29 28 27 25 24 23 22 22 22
32 33 35 35 35 35 34 34 34 33 31 31 31 31 31 30 30 30 30 30 30 30 30 29 28 27 27 27 27 28 28 28 28 28 27 25 24 24 23 22 22 22 21

GEFSMW_500_meanwind_228.txt.gz
Wind_Speed
39 38 37 37 36 36 35 35 35 35 35 35 35 35 35 35 36 36 37 37 38 38 39 40 40 41 41 42 42 43 43 43 44 44 44 44 45 45 46 46 47 48 49
39 39 38 37 37 36 36 36 36 37 37 37 37 36 36 37 37 38 38 39 39 40 41 41 42 42 43 43 44 44 44 45 45 46 46 46 46 46 47 48 49 49 50
40 40 39 38 37 37 37 37 37 38 38 38 38 38 38 38 38 38 39 40 41 41 42 42 43 44 44 44 44 45 45 46 47 47 48 49 49 49 49 49 50 50 51
41 41 40 40 39 38 38 39 39 39 39 39 39 39 39 39 39 40 40 41 41 42 42 43 44 44 45 45 45 45 46 48 48 49 49 50 51 52 52 51 51 51 51
42 41 41 40 40 40 39 40 40 40 39 40 40 40 40 40 41 41 41 42 42 43 43 44 44 45 45 46 47 47 48 49 49 49 50 51 52 52 53 52 51 51 51
42 41 41 41 41 40 40 40 40 40 40 40 41 41 41 42 42 43 43 43 44 44 45 45 45 46 46 47 48 48 49 49 50 51 52 52 52 53 53 53 52 51 51
43 42 42 41 41 41 41 41 41 41 41 42 42 42 43 43 44 44 45 45 45 45 46 46 47 47 48 48 49 50 50 50 51 51 52 52 53 53 54 54 53 51 50
43 43 42 42 42 42 42 42 42 42 43 43 43 44 44 45 46 46 46 46 46 46 47 47 48 49 49 50 50 50 51 50 51 51 51 52 52 53 54 53 53 52 51
43 43 43 42 42 42 43 43 43 43 44 44 44 45 45 45 46 46 47 47 48 48 48 49 49 50 50 50 50 50 51 50 51 51 51 51 52 53 53 52 53 53 52
42 42 42 42 42 43 43 43 43 43 44 44 44 44 44 45 45 46 47 48 48 48 49 49 50 50 49 50 50 50 50 50 50 50 51 52 52 53 52 52 52 52 52
40 40 41 41 41 42 42 43 43 43 44 44 44 44 45 45 45 46 46 47 48 49 49 49 50 49 49 49 50 50 50 51 50 51 52 52 52 51 51 50 50 50 51
40 40 40 40 41 41 41 42 42 43 43 44 44 45 45 45 45 46 46 47 47 48 48 48 48 48 48 49 49 49 50 50 51 51 51 51 50 49 49 49 50 50 50
40 39 39 40 40 40 41 41 42 42 43 43 44 44 45 45 45 45 46 46 46 46 46 46 46 47 47 47 47 48 48 49 49 49 49 48 48 48 48 49 48 48 48
40 39 39 39 40 40 40 41 41 41 42 42 43 43 44 44 44 45 44 45 45 45 44 44 44 45 45 45 45 46 47 48 48 48 47 46 47 47 47 47 46 46 46
39 39 39 40 40 40 40 40 40 41 41 42 43 43 44 44 44 43 44 44 44 43 43 43 43 43 43 44 45 46 47 47 47 46 46 46 46 45 45 45 45 45 45
40 40 40 40 40 40 40 39 40 40 40 41 42 42 42 42 42 43 43 43 43 42 43 43 43 43 43 43 44 44 45 44 44 44 45 45 44 44 44 44 44 44 43
38 39 39 40 40 40 40 40 40 39 39 40 41 41 41 41 41 42 43 42 42 42 42 43 43 43 43 43 44 44 44 44 44 44 44 43 43 43 43 43 42 42 41
37 38 38 38 39 39 40 40 40 40 39 40 40 40 40 40 42 42 42 43 42 42 43 43 42 42 42 43 44 44 44 43 43 43 42 42 42 42 42 41 41 40 40
37 37 38 38 38 38 39 39 40 40 40 40 40 40 40 41 42 42 42 42 42 42 42 42 42 41 42 43 43 43 42 42 41 41 41 42 41 41 41 41 40 39 38
38 38 37 37 37 37 38 39 39 39 40 40 40 40 40 40 41 41 41 41 41 41 41 41 41 41 41 42 41 41 41 40 40 40 40 41 40 40 40 40 39 38 37
38 38 38 38 37 37 37 38 38 38 39 39 39 39 39 39 39 39 39 40 40 41 40 40 40 40 40 40 39 40 40 40 39 39 38 38 38 37 38 38 37 36 35
36 37 37 37 37 37 37 37 37 37 38 38 38 39 39 38 38 38 39 39 39 39 39 39 38 37 37 37 37 38 38 38 38 37 37 36 36 36 36 36 35 34 34
36 36 36 36 36 36 37 37 37 37 37 38 38 38 38 38 38 38 37 37 37 37 37 36 36 36 36 36 37 37 37 37 37 36 35 34 34 34 35 34 34 33 33
34 34 34 35 35 35 35 36 36 36 37 37 37 37 37 36 36 36 36 36 36 36 35 35 35 35 35 36 36 35 35 34 33 33 33 33 33 33 33 31 31 31 30
33 33 34 34 35 35 35 35 36 36 36 36 35 35 35 35 35 35 35 35 35 34 34 34 34 34 34 35 34 32 31 31 31 31 32 32 32 31 30 29 29 28 27
32 33 33 34 34 35 35 35 35 35 35 34 34 34 34 34 34 34 34 34 33 33 32 32 32 32 32 31 30 30 30 30 30 30 30 30 29 28 28 27 26 25 24

GEFSMW_500_meanwind_234.txt.gz
Wind_Speed
41 41 40 40 40 39 39 38 38 38 37 37 36 36 35 35 34 34 34 34 35 35 35 35 36 36 37 37 38 38 39 39 40 40 41 41 41 41 42 43 43 44 45
41 41 41 40 40 40 39 39 39 38 38 38 38 38 37 37 37 37 37 37 37 37 37 37 37 38 38 38 39 40 40 41 41 42 42 42 42 42 43 44 44 45 46
42 42 42 41 41 40 40 40 40 40 40 39 39 39 39 39 39 39 39 39 39 39 39 39 39 39 40 40 40 41 41 42 42 43 44 44 44 43 43 44 45 46 47
43 43 42 42 41 41 41 41 41 41 41 41 40 40 40 40 40 40 40 40 40 40 40 40 40 40 41 41 41 42 42 43 43 44 45 45 45 45 44 45 46 46 47
43 43 43 42 42 42 42 42 42 42 42 41 41 41 41 41 41 40 41 41 41 41 41 41 42 42 42 42 42 43 44 44 44 44 45 45 46 46 47 46 46 47 48
44 43 43 43 43 43 44 43 43 42 42 41 42 41 41 41 41 41 41 42 42 42 42 43 43 44 44 44 44 44 44 44 45 45 45 46 46 48 48 48 48 48 49
45 44 43 44 44 44 44 43 43 43 42 42 42 42 42 42 42 42 42 43 43 43 43 44 45 45 45 45 46 45 45 45 46 46 47 47 48 49 50 51 51 51 51
45 45 44 44 44 44 44 44 44 43 43 43 43 43 43 43 44 44 44 44 44 44 44 45 46 46 46 46 46 46 46 47 47 47 48 48 49 50 51 52 53 53 51
45 45 44 44 45 45 45 45 45 45 44 44 45 44 44 45 45 45 44 44 45 45 46 46 47 47 47 46 46 46 47 47 48 48 48 48 49 50 51 52 52 53 52
46 45 45 44 45 45 45 45 45 45 45 45 45 46 45 46 46 45 46 46 46 47 47 47 47 47 47 47 47 47 47 47 47 48 49 49 50 51 51 51 52 52 53
44 44 45 44 45 45 45 45 45 45 46 46 46 46 46 46 46 46 46 47 47 48 47 48 47 47 47 47 47 47 47 47 47 48 49 49 50 50 50 50 52 53 53
42 43 44 44 44 45 45 45 45 46 46 46 46 46 46 46 46 47 47 48 48 47 47 47 47 47 47 47 47 47 47 48 48 48 48 48 49 49 50 51 52 53 52
41 42 43 44 44 44 45 45 45 45 46 46 46 46 46 46 46 47 47 47 47 46 46 46 46 47 47 47 47 48 48 48 48 48 47 48 49 50 50 51 52 53 52
42 42 43 44 44 44 44 44 45 45 45 46 46 45 45 46 46 46 47 47 46 45 45 45 46 46 46 46 47 47 48 48 48 48 47 48 49 50 51 52 53 52 51
41 42 43 43 44 44 44 44 44 44 45 45 45 45 45 45 45 46 46 46 45 45 45 45 46 46 46 46 47 47 47 48 48 48 48 48 49 50 51 51 50 49 48
41 42 42 43 44 44 45 45 45 45 44 44 44 44 45 45 44 44 45 45 45 45 45 46 46 46 46 46 47 46 47 47 47 48 48 48 49 49 49 49 47 46 45
40 41 42 43 43 44 44 44 45 45 44 44 43 43 43 43 43 43 43 44 44 45 45 46 46 46 46 46 46 46 46 46 47 47 48 48 48 47 47 46 45 44 44
39 40 41 41 42 43 43 44 44 43 43 43 42 42 42 42 42 42 42 42 43 44 45 45 45 45 46 46 46 46 46 47 47 47 47 46 46 45 44 44 43 43 43
37 38 40 41 41 42 43 43 43 43 43 42 42 43 43 43 43 42 42 42 43 43 44 44 44 44 44 45 45 46 47 47 47 46 45 45 44 44 43 42 42 41 41
36 36 37 39 40 41 41 42 42 42 42 43 43 43 44 43 43 43 43 43 43 43 43 43 44 44 44 45 45 46 46 46 45 44 44 44 44 43 42 41 41 40 40
36 37 37 37 38 39 40 41 41 42 42 42 42 43 43 43 43 43 43 43 42 42 42 42 43 44 44 44 45 44 44 44 43 42 42 42 42 41 41 41 40 39 39
36 36 36 37 37 37 38 39 39 40 41 41 42 42 43 43 43 43 42 41 41 41 41 41 42 42 42 42 42 42 42 41 41 40 40 39 39 39 38 38 38 37 36
35 35 36 36 37 37 37 38 38 39 39 40 40 41 41 41 41 40 40 40 40 40 40 41 42 41 41 40 40 40 40 40 39 38 37 37 36 36 36 36 36 35 35
36 35 35 35 35 36 37 38 38 39 39 39 39 39 39 39 39 39 39 39 40 40 40 40 40 39 38 38 38 38 38 37 36 35 35 35 35 35 34 33 33 32 32
35 35 36 36 36 36 37 37 38 38 38 38 38 38 38 38 38 38 38 39 39 39 38 38 37 36 36 36 36 36 35 34 34 34 34 34 34 33 31 30 30 30 29
33 34 35 35 35 36 36 37 38 38 38 38 37 37 37 38 38 38 38 38 37 37 36 35 35 34 34 33 33 33 33 33 34 34 34 33 32 30 29 29 28 28 27

GEFSMW_500_meanwind_240.txt.gz
Wind_Speed
44 44 43 43 42 42 41 41 40 40 39 39 38 38 37 37 36 36 36 35 35 35 34 34 34 34 34 34 35 35 36 36 37 37 37 38 38 39 39 40 40 41 41
45 44 44 43 43 42 41 41 41 41 40 40 40 39 39 38 38 37 36 36 36 35 35 35 35 35 36 36 36 37 37 37 38 38 38 38 38 39 39 40 40 41 41
45 44 44 44 43 42 42 42 41 41 41 41 40 40 40 39 39 38 37 37 36 36 36 37 37 37 38 38 38 39 39 39 39 39 40 40 40 39 39 40 41 42 43
45 44 44 44 43 43 43 42 42 41 41 41 41 41 40 40 40 39 39 38 38 38 38 38 38 39 39 40 40 41 40 40 40 41 41 41 41 41 40 40 42 43 44
46 45 45 44 44 44 44 43 43 42 42 42 42 42 41 41 40 40 40 40 40 40 40 40 40 41 41 41 42 41 41 41 41 41 41 41 42 42 42 42 43 44 45
46 45 45 44 44 44 44 44 43 43 43 43 43 42 42 41 41 41 41 42 42 42 42 42 42 42 42 41 41 41 41 41 42 42 42 42 42 43 43 44 44 44 45
45 45 45 44 44 44 44 44 44 44 43 43 43 43 42 42 42 42 43 43 43 43 43 43 43 42 42 42 41 41 42 42 42 42 42 43 43 44 45 45 45 46 46
45 45 45 45 44 44 44 44 44 44 44 44 44 43 43 43 43 43 43 43 43 43 43 43 43 43 42 42 42 42 42 43 43 43 44 44 45 46 46 47 47 47 47
45 45 45 45 45 45 45 45 45 44 44 44 44 44 44 44 44 44 44 43 43 43 43 43 44 43 43 43 44 43 44 44 44 45 45 46 46 47 48 48 48 49 49
45 45 45 45 45 45 46 46 45 45 45 45 45 45 45 45 45 44 44 44 44 44 44 44 43 43 44 44 45 45 45 46 46 47 47 47 48 49 49 49 50 50 51
44 45 45 45 45 46 46 46 46 46 46 46 46 45 45 45 45 45 45 45 45 45 45 44 44 44 44 45 46 46 47 47 47 47 48 49 49 49 50 51 51 52 52
43 44 45 45 45 45 46 46 46 46 46 46 46 46 45 45 45 45 45 46 46 46 46 45 45 45 46 46 47 47 48 48 47 48 49 49 50 50 51 51 51 52 52
42 43 44 45 45 45 45 45 46 46 47 47 47 46 46 46 46 46 46 46 46 46 46 46 46 46 46 47 47 47 48 48 48 48 49 49 50 50 50 50 51 51 52
41 42 43 44 44 45 45 45 46 46 47 46 46 46 46 47 47 47 47 47 46 46 46 46 46 46 47 47 47 47 47 47 48 48 49 49 50 49 50 50 51 51 52
40 40 41 43 44 45 45 45 46 47 47 47 47 47 47 47 47 47 47 47 47 47 47 46 46 46 46 47 47 47 48 48 48 48 48 48 49 49 50 51 51 51 51
39 40 41 42 43 44 45 46 46 47 47 47 47 47 47 47 47 47 47 47 46 46 46 46 46 46 46 46 47 47 48 49 49 48 48 48 49 50 50 51 50 50 49
39 39 41 42 43 44 44 45 46 47 47 47 47 47 47 47 46 47 47 47 46 46 46 46 47 47 47 47 47 47 47 47 47 47 48 48 48 50 50 49 48 47 47
38 39 40 41 42 43 44 44 44 45 46 47 47 47 47 46 46 46 46 46 46 46 46 47 47 48 47 47 47 47 47 47 47 47 48 48 48 48 48 47 46 45 44
38 39 39 40 41 42 43 44 44 44 45 46 46 46 46 46 46 46 46 46 45 46 46 46 47 47 47 47 47 47 47 46 46 46 46 47 47 46 46 46 44 42 40
38 38 39 39 40 41 42 42 43 43 44 45 45 46 46 46 46 46 45 45 45 45 45 46 46 46 46 46 46 46 46 45 45 45 45 45 45 45 44 42 40 39 37
37 37 38 38 39 40 40 41 41 42 43 43 44 45 45 45 45 45 45 45 45 44 44 45 45 45 45 45 45 45 44 44 44 43 43 43 43 41 40 39 38 38 37
36 37 37 36 37 38 38 39 40 40 40 41 41 42 43 43 44 44 44 44 44 44 44 44 44 43 43 43 43 42 42 42 43 43 42 40 39 39 39 39 38 38 38
34 35 35 35 36 37 37 38 38 39 39 40 40 40 41 41 42 42 42 42 42 42 42 42 42 41 41 41 40 40 40 41 41 41 40 39 39 39 38 38 37 37 36
32 33 34 34 36 36 36 37 37 37 37 38 39 39 40 40 40 40 40 40 40 41 41 40 40 40 40 39 39 39 39 39 39 39 38 38 38 37 36 35 34 34 34
31 32 33 33 34 35 35 35 36 36 37 37 37 38 38 38 38 38 38 38 38 39 39 38 38 38 38 37 37 37 37 37 37 36 36 36 35 34 33 33 32 32 31
30 30 31 32 32 33 34 34 35 35 36 37 37 37 37 38 38 37 37 37 37 37 37 37 36 36 36 35 35 35 35 35 35 34 34 33 32 32 31 31 30 29 29